EHI
0 0 0 0 0 0 0 0 0 0 0 0 0 0 0 0 0 0 0 0 0 0 0 0 0 0 0 0 0 0 0 0 0 0 0 0 0 0 0 0 0 0 0
0 0 0 0 0 0 0 0 0 0 0 0 0 0 0 0 0 0 0 0 0 0 0 0 0 0 0 0 0 0 0 0 0 0 0 0 0 0 0 0 0 0 0
0 0 0 0 0 0 0 0 0 0 0 0 0 0 0 0 0 0 0 0 0 0 0 0 0 0 0 0 0 0 0 0 0 0 0 0 0 0 0 0 0 0 0
0 0 0 0 0 0 0 0 0 0 0 0 0 0 0 0 0 0 0 0 0 0 0 0 0 0 0 0 0 0 0 0 0 0 0 0 0 0 0 0 0 0 0
0 0 0 0 0 0 0 0 0 0 0 0 0 0 0 0 0 0 0 0 0 0 0 0 0 0 0 0 0 0 0 0 0 0 0 0 0 0 0 0 0 0 0
0 0 0 0 0 0 0 0 0 0 0 0 0 0 0 0 0 0 0 0 0 0 0 0 0 0 0 0 0 0 0 0 0 0 0 0 0 0 0 0 0 0 0
0 0 0 0 0 0 0 0 0 0 0 0 0 0 0 0 0 0 0 0 0 0 0 0 0 0 0 0 0 0 0 0 0 0 0 0 0 0 0 0 0 0 0
0 0 0 0 0 0 0 0 0 0 0 0 0 0 0 0 0 0 0 0 0 0 0 0 0 0 0 0 0 0 0 0 0 0 0 0 0 0 0 0 0 0 0
0 0 0 0 0 0 0 0 0 0 0 0 0 0 0 0 0 0 0 0 0 0 0 0 0 0 0 0 0 0 0 0 0 0 0 0 0 0 0 0 0 0 0
0 0 0 0 0 0 0 0 0 0 0 0 0 0 0 0 0 0 0 0 0 0 0 0 0 0 0 0 0 0 0 0 0 0 0 0 0 0 0 0 0 0 0
0 0 0 0 0 0 0 0 0 0 0 0 0 0 0 0 0 0 0 0 0 0 0 0 0 0 0 0 0 0 0 0 0 0 0 0 0 0 0 0 0 0 0
0 0 0 0 0 0 0 0 0 0 0 0 0 0 0 0 0 0 0 0 0 0 0 0 0 0 0 0 0 0 0 0 0 0 0 0 0 0 0 0 0 0 0
0 0 0 0 0 0 0 0 0 0 0 0 0 0 0 0 0 0 0 0 0 0 0 0 0 0 0 0 0 0 0 0 0 0 0 0 0 0 0 0 0 0 0
0 0 0 0 0 0 0 0 0 0 0 0 0 0 0 0 0 0 0 0 0 0 0 0 0 0 0 0 0 0 0 0 0 0 0 0 0 0 0 0 0 0 0
0 0 0 0 0 0 0 0 0 0 0 0 0 0 0 0 0 0 0 0 0 0 0 0 0 0 0 0 0 0 0 0 0 0 0 0 0 0 0 0 0 0 0
0 0 0 0 0 0 0 0 0 0 0 0 0 0 0 0 0 0 0 0 0 0 0 0 0 0 0 0 0 0 0 0 0 0 0 0 0 0 0 0 0 0 0
0 0 0 0 0 0 0 0 0 0 0 0 0 0 0 0 0 0 0 0 0 0 0 0 0 0 0 0 0 0 0 0 0 0 0 0 0 0 0 0 0 0 0
0 0 0 0 0 0 0 0 0 0 0 0 0 0 0 0 0 0 0 0 0 0 0 0 0 0 0 0 0 0 0 0 0 0 0 0 0 0 0 0 0 0 0
0 0 0 0 0 0 0 0 0 0 0 0 0 0 0 0 0 0 0 0 0 0 0 0 0 0 0 0 0 0 0 0 0 0 0 0 0 0 0 0 0 0 0
0 0 0 0 0 0 0 0 0 0 0 0 0 0 0 0 0 0 0 0 0 0 0 0 0 0 0 0 0 0 0 0 0 0 0 0 0 0 0 0 0 0 0
0 0 0 0 0 0 0 0 0 0 0 0 0 0 0 0 0 0 0 0 0 0 0 0 0 0 0 0 0 0 0 0 0 0 0 0 0 0 0 0 0 0 0
0 0 0 0 0 0 0 0 0 0 0 0 0 0 0 0 0 0 0 0 0 0 0 0 0 0 0 0 0 0 0 0 0 0 0 0 0 0 0 0 0 0 0
0 0 0 0 0 0 0 0 0 0 0 0 0 0 0 0 0 0 0 0 0 0 0 0 0 0 0 0 0 0 0 0 0 0 0 0 0 0 0 0 0 0 0
0 0 0 0 0 0 0 0 0 0 0 0 0 0 0 0 0 0 0 0 0 0 0 0 0 0 0 0 0 0 0 0 0 0 0 0 0 0 0 0 0 0 0
0 0 0 0 0 0 0 0 0 0 0 0 0 0 0 0 0 0 0 0 0 0 0 0 0 0 0 0 0 0 0 0 0 0 0 0 0 0 0 0 0 0 0
0 0 0 0 0 0 0 0 0 0 0 0 0 0 0 0 0 0 0 0 0 0 0 0 0 0 0 0 0 0 0 0 0 0 0 0 0 0 0 0 0 0 0
Wind_Speed
2 2 2 3 3 3 2 3 3 3 4 4 4 3 3 3 2 1 1 1 0 0 0 1 1 1 0 0 1 1 1 2 2 1 1 1 1 2 1 1 2 2 3
2 2 2 3 3 3 3 4 3 3 4 3 3 3 3 3 2 1 1 1 0 0 0 0 0 0 0 0 1 1 1 2 2 2 1 0 1 2 1 1 1 2 2
2 1 2 2 3 3 3 4 3 3 4 4 3 3 3 3 2 2 1 1 0 0 0 0 1 1 1 1 1 1 1 1 1 2 1 0 1 1 1 1 1 1 1
2 1 2 3 3 3 3 3 3 3 3 4 3 3 3 3 2 2 1 1 1 1 0 1 1 2 2 2 1 2 1 1 1 1 1 1 1 1 1 1 1 1 1
2 2 3 3 2 2 3 3 3 3 3 3 3 4 4 3 2 1 1 0 1 1 1 1 1 1 2 2 2 2 2 1 1 1 1 1 1 1 2 1 2 1 1
2 3 2 2 2 2 3 3 3 3 3 3 4 4 4 3 5 4 1 0 0 0 1 2 2 1 2 1 1 2 3 3 3 2 2 2 3 3 2 2 2 1 2
3 3 2 2 2 2 2 2 3 3 3 3 3 3 4 5 6 5 3 1 1 0 1 1 2 2 2 1 2 3 3 4 5 4 4 4 4 4 3 3 3 3 3
3 3 2 2 2 2 2 2 3 2 2 2 3 3 3 5 6 4 3 2 1 1 1 1 1 3 2 1 1 2 2 3 4 3 4 5 5 4 4 4 3 2 1
3 4 3 3 3 2 2 3 2 2 3 2 2 3 3 5 7 5 3 1 1 2 2 1 1 2 4 3 1 2 3 3 3 5 6 6 6 6 5 2 2 2 2
5 5 3 3 3 3 4 3 2 2 3 3 3 3 3 4 6 5 3 0 1 2 2 2 3 3 4 3 1 1 3 3 3 3 2 3 3 4 6 5 4 3 2
4 3 2 3 3 4 3 2 2 2 2 3 3 3 3 4 6 6 3 1 1 1 2 2 2 4 5 4 2 2 4 3 2 2 2 2 2 2 3 4 4 4 4
2 2 2 2 2 2 2 2 2 2 2 3 3 4 3 3 4 5 5 2 2 2 2 2 3 5 5 4 3 4 5 3 1 1 1 2 2 2 2 3 3 4 4
2 2 2 1 1 1 1 2 2 1 1 2 2 3 4 3 3 6 6 5 3 2 2 3 4 4 4 4 4 5 3 1 1 1 2 2 2 2 2 1 1 2 2
3 2 1 1 1 1 1 1 1 1 2 2 2 3 4 4 3 3 3 3 3 2 2 2 3 4 2 3 4 3 2 1 1 2 3 2 2 1 2 1 1 1 1
3 1 1 1 1 1 1 1 1 1 1 2 2 2 2 4 4 5 3 2 1 1 0 1 2 2 3 3 3 3 2 2 2 2 2 2 2 2 2 2 2 2 2
3 1 1 1 0 0 1 2 1 1 3 3 3 2 2 4 7 6 5 4 2 1 2 2 2 2 2 3 3 4 3 2 2 2 2 2 3 3 3 2 2 2 3
3 2 1 1 0 0 0 0 2 3 4 5 7 7 5 6 6 6 5 5 6 5 3 1 1 2 2 3 2 2 3 3 3 3 3 3 3 3 2 3 2 3 3
3 3 2 1 1 1 0 0 0 1 2 3 5 8 9 9 9 8 6 6 5 5 3 2 3 3 3 3 3 3 3 3 3 3 3 3 3 3 3 3 3 3 4
3 2 2 1 1 1 1 2 2 2 2 2 3 5 8 8 10 11 8 5 4 4 3 3 3 3 3 3 3 3 3 3 4 3 3 3 3 3 4 4 4 4 4
3 6 5 3 2 2 2 3 3 3 3 3 4 4 4 5 5 6 6 5 4 4 3 3 4 4 4 4 4 4 4 4 4 4 4 4 4 3 4 5 4 4 4
3 4 7 4 3 3 3 3 3 3 3 3 3 4 6 4 4 4 4 4 4 4 4 4 4 4 4 4 4 4 5 5 5 5 5 5 5 4 4 5 5 5 5
4 4 3 4 3 3 3 3 3 3 3 3 2 4 7 4 3 3 3 3 3 3 3 3 3 3 3 4 4 4 5 5 6 6 6 6 6 6 5 5 5 5 5
5 5 4 3 3 5 4 3 3 3 2 2 2 2 3 3 3 3 3 3 3 3 3 3 3 3 3 3 3 4 4 5 6 6 7 7 7 6 6 6 7 7 6
5 5 5 4 3 3 3 2 2 2 2 2 2 2 2 2 2 2 2 2 3 3 3 3 3 4 6 5 4 3 4 5 6 6 8 7 8 7 7 7 7 8 8
5 5 4 4 3 3 3 2 2 2 1 1 1 1 1 1 2 2 2 2 3 3 4 4 3 3 5 6 6 6 8 10 9 7 7 6 8 8 8 9 8 8 8
5 4 4 3 3 3 3 2 2 2 1 1 1 0 0 1 1 2 2 2 3 3 3 3 4 5 6 6 7 9 10 11 11 11 8 6 7 7 8 8 11 9 9
Wind_Direction
269 282 305 311 318 327 327 320 322 326 331 334 332 337 341 341 342 360 348 4 53 3 90 149 203 195 168 188 177 176 187 176 209 255 249 258 220 210 208 205 210 210 211
253 275 296 312 325 330 325 324 330 330 330 329 334 341 337 335 333 331 323 342 323 282 278 130 269 162 170 222 184 189 203 198 193 232 262 267 238 207 198 204 214 204 210
242 267 300 313 319 316 315 322 331 334 336 339 346 344 335 330 324 306 289 316 312 251 247 221 242 187 218 232 206 205 217 220 193 204 238 235 270 221 176 187 182 195 220
220 243 280 291 300 304 313 325 330 335 339 340 341 340 336 331 327 321 321 339 356 349 312 244 229 208 217 218 215 211 201 198 189 199 226 235 239 241 182 189 216 211 238
204 237 263 285 305 314 322 326 333 339 339 335 342 344 343 340 340 343 342 6 359 357 345 322 289 252 236 215 204 200 186 187 197 208 223 240 234 217 217 203 217 244 249
201 238 265 293 309 311 312 319 331 333 335 344 346 342 344 341 347 357 13 50 14 11 330 326 324 312 305 306 280 235 204 198 203 209 220 226 239 229 222 206 200 214 249
209 238 256 270 287 296 310 326 322 317 327 333 332 339 333 328 345 0 16 49 48 342 306 313 320 324 317 296 294 292 268 243 221 211 220 229 228 218 211 217 213 218 232
215 239 250 253 270 291 309 308 303 303 307 307 315 323 323 327 344 352 6 31 31 342 304 286 294 312 315 306 292 298 291 274 248 229 224 234 232 224 214 222 221 227 249
221 237 240 233 249 270 281 284 283 295 299 296 297 311 317 317 334 339 350 20 354 326 311 305 296 298 313 330 332 297 300 298 284 262 246 248 248 239 213 191 197 210 239
226 234 235 226 232 248 259 266 269 272 284 298 304 299 296 300 319 330 337 90 320 316 325 321 314 310 305 312 284 270 286 290 303 313 292 275 257 246 224 210 207 215 227
223 226 230 229 233 242 258 261 269 284 304 310 307 304 297 292 306 318 318 187 228 277 301 305 301 315 318 310 295 259 268 280 278 282 287 286 272 246 231 218 212 212 221
194 209 235 245 250 248 248 271 276 284 304 309 314 315 307 299 298 304 307 280 224 218 261 270 282 304 316 317 308 293 292 300 288 285 275 274 269 259 245 229 223 226 233
166 202 240 263 266 264 248 267 283 278 281 295 302 303 307 311 308 307 302 298 271 228 254 270 294 317 328 325 316 318 322 311 291 285 280 274 265 253 252 249 234 232 248
161 198 230 260 289 295 271 253 254 268 270 283 289 291 299 308 312 315 309 304 296 275 289 316 334 345 347 330 330 334 326 271 258 264 276 278 277 262 253 238 237 229 250
160 180 207 238 270 292 292 247 233 249 215 240 265 265 285 301 305 311 308 299 276 254 36 21 16 5 358 351 344 334 327 327 305 280 277 285 286 277 265 238 229 224 231
156 178 190 201 245 282 315 337 333 293 11 15 351 315 275 285 312 329 332 334 348 85 91 36 3 356 344 335 332 329 326 323 309 292 283 278 280 282 285 268 237 238 248
161 169 163 159 157 161 67 11 340 359 23 26 21 20 18 6 6 9 22 43 51 69 70 30 356 338 326 321 316 311 311 314 311 303 294 290 284 280 279 278 267 256 256
152 145 141 151 152 142 133 112 84 34 11 2 10 21 25 31 33 30 36 58 47 43 38 17 0 351 341 332 327 322 318 323 325 318 311 307 301 295 292 284 273 264 267
138 137 128 118 108 100 89 84 78 70 54 18 8 11 18 30 41 39 46 56 52 37 25 14 4 357 352 348 342 336 334 332 331 327 322 315 310 304 296 290 283 275 268
123 123 117 108 92 85 82 83 78 72 63 48 32 11 4 33 44 37 39 41 41 31 20 15 10 6 1 358 353 350 351 348 342 336 327 322 316 304 295 292 286 280 270
115 113 110 99 94 93 90 88 86 83 76 62 41 34 46 57 51 41 37 35 31 25 21 17 15 10 6 3 0 359 358 352 345 338 329 321 317 311 301 292 285 280 278
120 114 111 109 103 95 92 89 89 86 80 70 40 35 42 50 48 43 35 27 22 19 13 12 8 5 3 1 360 358 355 349 342 337 332 325 318 310 306 300 295 289 282
121 116 108 103 103 104 95 88 90 90 83 71 58 46 41 43 41 37 28 18 13 9 7 9 4 357 355 353 352 350 345 338 331 327 324 319 316 313 309 303 299 296 288
125 125 123 118 113 111 111 105 98 97 94 83 66 56 47 38 30 23 11 1 359 355 354 356 354 352 350 346 343 341 335 327 324 321 318 313 313 311 308 303 298 295 291
130 131 132 133 131 129 125 119 115 111 104 97 85 66 40 22 8 356 348 345 344 342 339 336 332 335 335 331 327 326 327 329 328 325 316 311 310 311 311 307 303 299 293
135 136 137 139 141 144 145 146 149 149 147 148 145 147 318 331 327 325 326 327 327 323 321 319 317 316 315 316 315 318 321 323 323 322 317 309 308 307 309 305 306 301 295